Back to catalog

STARLINK-30548

AliveCommunicationsVLEO
NORAD 58046·PAYLOAD·🇺🇸 United States

Launched Oct 9, 2023 from Vandenberg Space Force Base

Loading…

Next Passes (next 24 hours)

TLE

FreshSource: CelesTrak SupGP

Epoch: Sep 14, 2026, 14:01 UTC

1 58046C 23156U   26257.58451389 -.00014885  00000+0 -43991-3 0  2578
2 58046  53.1606   7.0533 0001451  73.7688  17.1134 15.34388859    16

Track STARLINK-30548 in real time with AllMySat

Download on the App Store